[[{"header":{"parameterUnit":"m.s-1","parameterCategory":1,"la1":30.2991,"la2":30.254,"lo1":-89.0895,"lo2":-89.0444,"dy":0.0017,"dx":0.0017,"nx":28,"ny":28,"refTime":"2024-03-07T03:00:00:Z","depth":0,"parameterNumber":2,"parameterNumberName":"U-component_of_WINDS"},"data":[0,0,0,0,0,0,0,0,0,0,0,0,0,0,0,0,0,0,0,0,0,0,0,0,0,0,0,0,0,0,0,0,0,0,0,0,0,0,0,0,0,0,0,0,0,0,0,0,0,0,0,0,0,0,0,0,0,0,1.6871,1.6872,0,1.6989,1.699,1.6991,1.6986,1.6984,1.6983,1.6981,1.7107,1.7112,1.7117,0,0,0,0,0,0,0,0,0,0,0,0,0,1.6645,1.6649,1.6871,1.6872,1.6873,1.6988,1.699,1.6992,1.6986,1.6984,1.6982,1.698,1.7105,1.7111,1.7117,0,0,0,0,0,0,0,0,0,0,0,0,0,1.6751,1.6651,1.687,1.6885,1.6887,1.6988,1.699,1.6992,1.6987,1.6984,1.6982,1.6979,1.7103,1.7111,1.7118,1.7214,0,0,1.714,1.7144,0,0,0,0,0,0,0,0,1.6745,1.6759,1.6881,1.6884,1.6887,1.697,1.6957,1.7067,1.6987,1.6949,1.6981,1.6978,1.7064,1.7074,1.7102,1.722,1.7225,1.7141,1.7146,1.7149,1.7151,0,0,0,0,0,0,0,1.6738,1.6754,1.6917,1.6883,1.6886,1.6887,1.6899,1.6978,1.7019,1.6952,1.6952,1.6966,1.7065,1.7095,1.7105,1.7227,1.7141,1.7147,1.7152,1.7155,1.7431,1.7433,0,0,0,0,0,0,1.6727,1.6748,1.6914,1.6921,1.6808,1.6893,1.6906,1.6946,1.7018,1.7027,1.6968,1.6965,1.7084,1.7096,1.7109,1.7227,1.7149,1.7156,1.716,1.7428,1.7431,1.7434,0,0,0,0,0,0,1.6722,1.6741,1.6909,1.6835,1.6856,1.6899,1.6944,1.695,1.698,1.703,1.7038,1.6991,1.7082,1.7099,1.7188,1.7232,1.7159,1.7166,1.7424,1.7429,1.7433,1.7463,0,0,0,0,0,0,1.6715,1.674,1.6776,1.6835,1.686,1.6984,1.6946,1.6954,1.6992,1.6989,1.7054,1.7062,1.7081,1.7177,1.7195,1.724,1.7171,1.7421,1.7426,1.7432,1.7459,1.7468,1.7476,0,0,0,0,0,1.6707,1.6781,1.6778,1.6798,1.6905,1.6987,1.7001,1.702,1.6995,1.7033,1.7065,1.706,1.7223,1.7186,1.7207,1.7255,1.7418,1.7425,1.7431,1.7455,1.7466,1.7476,0,0,0,0,0,0,1.6727,1.6789,1.6786,1.688,1.6928,1.6985,1.7033,1.7032,1.7089,1.7085,1.7108,1.7122,1.7211,1.7242,1.7199,1.7352,1.7318,1.7329,1.7329,1.734,1.7349,1.734,1.7178,0,0,0,0,0,1.6742,1.6801,1.6852,1.6931,1.6955,1.699,1.7026,1.7036,1.7088,1.7108,1.7147,1.7198,1.7261,1.7302,1.7363,1.7463,1.7477,1.7506,1.7515,1.7522,1.7531,1.7587,1.7601,1.7456,1.7456,1.7456,0,0,1.6774,1.6815,1.6851,1.6936,1.6974,1.7036,1.7007,1.7074,1.7121,1.7119,1.7205,1.7235,1.7294,1.7389,1.7432,1.7417,1.7574,1.753,1.7535,1.7541,1.7595,1.7609,1.7621,1.746,1.7459,1.7459,0,0,1.6864,1.6901,1.697,1.7009,1.7066,1.7089,1.7106,1.7163,1.7183,1.7269,1.7269,1.7326,1.7434,1.7475,1.7511,1.7616,1.7614,1.7636,1.7682,1.7736,1.7748,1.7758,1.7796,1.781,1.7645,1.7645,1.7645,0,1.6898,1.699,1.7007,1.7074,1.7112,1.7111,1.7182,1.7219,1.7295,1.7321,1.7302,1.7437,1.7477,1.7581,1.7607,1.7635,1.7656,1.7629,1.7744,1.7755,1.7765,1.7802,1.7816,1.7647,1.7647,1.7647,1.7646,0,1.7028,1.7092,1.7142,1.7212,1.7256,1.7325,1.7354,1.7396,1.7402,1.7427,1.7516,1.7563,1.7633,1.7658,1.7666,1.7765,1.7753,1.7739,1.7705,1.778,1.7816,1.783,1.765,1.765,1.7649,1.7648,0,0,1.7135,1.7214,1.7232,1.7264,1.7327,1.7378,1.7447,1.7514,1.755,1.7602,1.7661,1.7752,1.7739,1.7779,1.7792,1.7839,1.7921,1.782,1.7821,1.7837,1.8033,1.8043,1.8059,1.7919,1.7922,1.7924,1.8028,0,1.7233,1.7354,1.7371,1.7479,1.7539,1.7539,1.76,1.7646,1.7671,1.7727,1.7755,1.7819,1.7797,1.7821,1.7868,1.7901,1.796,1.7893,1.7976,1.7979,1.7962,1.8077,1.8089,1.8185,1.8041,1.8044,1.8046,0,1.7363,1.7417,1.753,1.7585,1.7611,1.7665,1.7728,1.778,1.7833,1.7848,1.7892,1.7899,1.7972,1.7935,1.8037,1.7991,1.8025,1.8047,1.8051,1.806,1.8017,1.809,1.8216,1.823,1.8067,1.8065,1.8064,0,1.7431,1.7531,1.7612,1.764,1.7706,1.7744,1.7773,1.7823,1.7862,1.7917,1.7943,1.8007,1.8042,1.8092,1.8116,1.8086,1.8217,1.8181,1.8233,1.8232,1.8261,1.8259,1.8394,1.8282,1.8282,1.8282,1.8281,0,1.7539,1.7608,1.7643,1.7693,1.7772,1.7791,1.7869,1.7897,1.7941,1.7998,1.8002,1.8055,1.8083,1.8141,1.8161,1.8242,1.8258,1.8273,1.8278,1.8273,1.8272,1.8297,1.8292,1.8285,1.8285,1.8284,1.8283,0,1.7628,1.7654,1.7742,1.7797,1.7812,1.7867,1.7915,1.7964,1.7988,1.8059,1.8077,1.8116,1.8185,1.8213,1.8297,1.831,1.8404,1.8404,1.8386,1.8388,1.8438,1.8433,1.8595,1.8617,1.849,1.8491,1.8492,0,1.7695,1.7748,1.7808,1.7845,1.7875,1.7936,1.7975,1.7996,1.8038,1.8101,1.8143,1.8211,1.8266,1.8375,1.8412,1.8476,1.8478,1.853,1.8487,1.8481,1.8479,1.8476,1.8481,1.8538,1.8539,1.854,1.8541,0,1.7812,1.7822,1.7878,1.7939,1.7985,1.8035,1.8083,1.8113,1.8142,1.8189,1.8257,1.83,1.8385,1.8453,1.8519,1.8551,1.8552,1.8554,1.8569,1.8566,1.8553,1.8561,1.8408,1.855,1.8549,1.8549,1.8548,1.8548,1.7893,1.794,1.799,1.8052,1.809,1.8135,1.8183,1.8213,1.827,1.834,1.8349,1.8423,1.8475,1.8564,1.8598,1.8657,1.8644,1.8666,1.8672,1.8677,1.8681,1.8543,1.8669,1.8669,1.8669,1.8668,1.8668,0,1.8011,1.8042,1.8099,1.8165,1.8215,1.8208,1.8261,1.8303,1.8368,1.8415,1.8469,1.8548,1.8613,1.8654,1.8721,1.876,1.8762,1.8777,1.8774,1.8782,1.8688,1.8668,1.8774,1.8774,1.8774,1.8774,1.8774,1.8774,1.8078,1.8158,1.8174,1.8273,1.8304,1.8375,1.8406,1.8447,1.8485,1.8572,1.8626,1.8652,1.8697,1.8766,1.8826,1.8837,1.8861,1.8877,1.8887,1.8799,1.8788,1.8778,1.8759,1.8882,1.8882,1.8976,1.8977,1.8977]},{"header":{"parameterUnit":"m.s-1","parameterCategory":1,"la1":30.2991,"la2":30.254,"lo1":-89.0895,"lo2":-89.0444,"dy":0.0017,"dx":0.0017,"nx":28,"ny":28,"refTime":"2024-03-07T03:00:00:Z","depth":0,"parameterNumber":3,"parameterNumberName":"V-component_of_WINDS"},"data":[0,0,0,0,0,0,0,0,0,0,0,0,0,0,0,0,0,0,0,0,0,0,0,0,0,0,0,0,0,0,0,0,0,0,0,0,0,0,0,0,0,0,0,0,0,0,0,0,0,0,0,0,0,0,0,0,0,0,0.8881,0.8882,0,0.8996,0.8997,0.8999,0.8917,0.8913,0.8909,0.8906,0.9024,0.903,0.9037,0,0,0,0,0,0,0,0,0,0,0,0,0,0.8585,0.8591,0.8881,0.8882,0.8884,0.8996,0.8998,0.8999,0.8917,0.8913,0.8908,0.8904,0.9022,0.9029,0.9037,0,0,0,0,0,0,0,0,0,0,0,0,0,0.8708,0.8593,0.888,0.8856,0.8855,0.8996,0.8998,0.9,0.8918,0.8913,0.8907,0.8902,0.9019,0.9029,0.9038,0.9209,0,0,0.9068,0.9072,0,0,0,0,0,0,0,0,0.8702,0.8719,0.8858,0.8858,0.8857,0.8936,0.8936,0.907,0.892,0.8894,0.8906,0.89,0.8999,0.901,0.9044,0.9214,0.9219,0.9069,0.9075,0.9079,0.9082,0,0,0,0,0,0,0,0.8693,0.8714,0.8926,0.886,0.886,0.8838,0.885,0.8961,0.8976,0.8896,0.889,0.8905,0.8998,0.9035,0.9046,0.9221,0.9069,0.9078,0.9084,0.9087,0.953,0.9536,0,0,0,0,0,0,0.8687,0.8707,0.8923,0.893,0.8764,0.8848,0.8861,0.8917,0.8975,0.8978,0.891,0.8901,0.9021,0.9035,0.905,0.9249,0.9079,0.9088,0.9094,0.9524,0.9531,0.9538,0,0,0,0,0,0,0.8681,0.8707,0.8918,0.8817,0.8842,0.8859,0.8922,0.8922,0.8958,0.8985,0.8987,0.8945,0.9017,0.9036,0.9168,0.9252,0.9093,0.9102,0.9517,0.9526,0.9534,0.9651,0,0,0,0,0,0,0.8673,0.8705,0.8772,0.8819,0.8848,0.9036,0.8927,0.8928,0.8976,0.8965,0.9019,0.9022,0.9014,0.9154,0.9178,0.9262,0.9109,0.951,0.9521,0.9532,0.9639,0.9662,0.9682,0,0,0,0,0,0.8663,0.8801,0.8775,0.8802,0.8931,0.9041,0.9058,0.9046,0.8983,0.9048,0.9064,0.902,0.9239,0.9168,0.9195,0.9283,0.9504,0.9518,0.9531,0.963,0.9658,0.9681,0,0,0,0,0,0,0.8764,0.8807,0.8779,0.8937,0.8986,0.9027,0.911,0.9077,0.9144,0.9132,0.9114,0.9126,0.9264,0.9287,0.9207,0.9448,0.9361,0.9381,0.9428,0.9455,0.9475,0.9466,0.9118,0,0,0,0,0,0.8805,0.8891,0.8924,0.906,0.9086,0.9094,0.9141,0.9127,0.9177,0.9198,0.9224,0.9273,0.9352,0.9405,0.948,0.9642,0.965,0.9716,0.9737,0.9754,0.9771,0.9853,0.9881,0.9581,0.9581,0.9581,0,0,0.889,0.8924,0.898,0.9081,0.9117,0.9205,0.9112,0.921,0.9274,0.9213,0.9338,0.9358,0.9412,0.9559,0.9625,0.9582,0.9855,0.9771,0.9785,0.9792,0.9869,0.9898,0.9923,0.959,0.9588,0.9587,0,0,0.9089,0.9125,0.924,0.9277,0.9332,0.9336,0.9364,0.9409,0.942,0.9545,0.9499,0.9575,0.9713,0.9752,0.9789,0.9998,0.9958,1.0023,1.0133,1.0214,1.0237,1.0258,1.0328,1.0354,1.0039,1.004,1.004,0,0.9187,0.9319,0.9303,0.9404,0.9447,0.9394,0.9508,0.9545,0.9623,0.9653,0.9605,0.9773,0.9806,0.9959,1.0009,1.0043,1.0071,1.0016,1.0236,1.0256,1.0275,1.0342,1.0369,1.0047,1.0046,1.0045,1.0045,0,0.9435,0.9527,0.9613,0.9686,0.974,0.9848,0.9846,0.9902,0.9882,0.989,1.0016,1.0053,1.0132,1.0167,1.0151,1.0316,1.0287,1.0238,1.015,1.0311,1.0373,1.0399,1.0057,1.0054,1.0052,1.0051,0,0,0.9703,0.9763,0.9795,0.9825,0.9881,0.995,1.0053,1.013,1.0176,1.023,1.0314,1.043,1.0382,1.0425,1.0412,1.0483,1.064,1.0423,1.0424,1.0459,1.0819,1.0853,1.0884,1.0614,1.0619,1.0623,1.0813,0,0.9902,1.0081,1.0067,1.0236,1.0317,1.0266,1.0355,1.0397,1.0406,1.0476,1.0486,1.0566,1.0501,1.0525,1.0593,1.0606,1.0711,1.0593,1.0688,1.0692,1.0674,1.0917,1.0955,1.1133,1.0837,1.0842,1.0845,0,1.0158,1.0219,1.0395,1.0432,1.0466,1.0547,1.0612,1.0681,1.0726,1.0727,1.0773,1.0746,1.0847,1.0758,1.0894,1.0813,1.0851,1.0863,1.087,1.0876,1.0776,1.0926,1.119,1.1215,1.0884,1.0881,1.0878,0,1.0331,1.0457,1.0576,1.0605,1.0654,1.071,1.0733,1.0773,1.0818,1.0875,1.0903,1.0973,1.101,1.1063,1.1053,1.099,1.1191,1.1102,1.1192,1.1192,1.1235,1.1232,1.1504,1.1265,1.1265,1.1264,1.1264,0,1.0552,1.0661,1.0654,1.0728,1.0846,1.0829,1.0946,1.0962,1.0997,1.1071,1.1032,1.1101,1.1087,1.1156,1.115,1.126,1.1279,1.128,1.1276,1.1282,1.1281,1.1305,1.1291,1.1271,1.127,1.1268,1.1267,0,1.0765,1.0765,1.0891,1.0926,1.0936,1.1022,1.105,1.1118,1.1123,1.1217,1.1238,1.1245,1.1323,1.132,1.141,1.1405,1.154,1.1524,1.1525,1.152,1.1608,1.1598,1.1903,1.194,1.168,1.1683,1.1685,0,1.0905,1.0987,1.1028,1.1075,1.11,1.1176,1.1221,1.1206,1.1254,1.1308,1.1369,1.1443,1.1502,1.1629,1.1642,1.1709,1.1691,1.1794,1.1701,1.1702,1.1688,1.1682,1.1688,1.1811,1.1814,1.1816,1.1818,0,1.1152,1.1147,1.1213,1.1278,1.1332,1.1383,1.1429,1.1469,1.1458,1.1514,1.1593,1.1638,1.1727,1.18,1.1864,1.1885,1.1849,1.1847,1.187,1.1875,1.1871,1.187,1.157,1.184,1.1838,1.1836,1.1835,1.1834,1.133,1.1398,1.1437,1.151,1.1543,1.1586,1.165,1.1661,1.1727,1.1798,1.1785,1.1872,1.1911,1.1991,1.2018,1.2085,1.2048,1.2084,1.2092,1.21,1.2107,1.1862,1.2097,1.2096,1.2096,1.2095,1.2095,0,1.1571,1.1593,1.166,1.1725,1.1782,1.1743,1.1791,1.184,1.1918,1.1957,1.2014,1.2102,1.2172,1.2188,1.2254,1.2304,1.2288,1.2321,1.2316,1.232,1.2139,1.211,1.2332,1.2332,1.2332,1.2332,1.2332,1.2332,1.1703,1.1815,1.1814,1.1939,1.196,1.2044,1.2074,1.2112,1.2143,1.2243,1.23,1.231,1.2339,1.2405,1.2466,1.2469,1.2493,1.2532,1.2528,1.2358,1.2334,1.2311,1.2283,1.2538,1.2538,1.2703,1.2704,1.2705]}]]